Location: ??
(35.5090°N, 139.6783°E)
Time: 19:07:29
(UTC+00:00)

Cosmos 1300 Rocket - Pass Details

Date: 08 November 2025
Orbit: 594 x 620 km, 82.5° (Epoch: 08 December)

Event Time Altitude Azimuth Distance (km) Brightness Sun altitude
Rises 08:39:39 0° 181° (S) 2,879 7.2 -12.5°
Reaches altitude 10° 08:41:52 10° 180° (S) 1,979 6.3 -12.9°
Maximum altitude 08:46:14 75° 95° (E) 646 3.5 -13.8°
Drops below altitude 10° 08:50:38 10° 11° (N) 1,989 6.0 -14.7°
Sets 08:52:52 0° 9° (N) 2,897 6.8 -15.1°
